TimeEDT,TemperatureF,Dew PointF,Humidity,Sea Level PressureIn,VisibilityMPH,Wind Direction,Wind SpeedMPH,Gust SpeedMPH,PrecipitationIn,Events,Conditions,WindDirDegrees,DateUTC
12:15 AM,44.6,33.8,66,29.92,10.0,NNW,5.8,-,N/A,,Mostly Cloudy,330,2012-10-16 04:15:00
12:35 AM,44.6,33.8,66,29.91,10.0,NNW,8.1,-,N/A,,Overcast,330,2012-10-16 04:35:00
12:55 AM,44.6,33.8,66,29.92,10.0,NW,8.1,-,N/A,,Mostly Cloudy,320,2012-10-16 04:55:00
1:15 AM,42.8,33.8,70,29.93,10.0,NNW,8.1,-,N/A,,Scattered Clouds,330,2012-10-16 05:15:00
1:35 AM,42.8,33.8,70,29.93,10.0,North,5.8,-,N/A,,Scattered Clouds,350,2012-10-16 05:35:00
1:55 AM,42.8,33.8,70,29.94,10.0,NNW,5.8,-,N/A,,Mostly Cloudy,340,2012-10-16 05:55:00
2:15 AM,42.8,33.8,70,29.94,10.0,NNW,3.5,-,N/A,,Overcast,330,2012-10-16 06:15:00
2:35 AM,42.8,33.8,70,29.95,10.0,WNW,3.5,-,N/A,,Overcast,290,2012-10-16 06:35:00
2:55 AM,42.8,33.8,70,29.95,10.0,Calm,Calm,-,N/A,,Overcast,0,2012-10-16 06:55:00
3:15 AM,42.8,33.8,70,29.95,10.0,WSW,3.5,-,N/A,,Overcast,240,2012-10-16 07:15:00
3:35 AM,42.8,35.6,76,29.95,10.0,WSW,3.5,-,N/A,,Overcast,240,2012-10-16 07:35:00
3:55 AM,42.8,33.8,70,29.95,10.0,WSW,3.5,-,N/A,,Overcast,240,2012-10-16 07:55:00
4:15 AM,42.8,33.8,70,29.95,10.0,WSW,4.6,-,N/A,,Overcast,240,2012-10-16 08:15:00
4:35 AM,41.0,35.6,81,29.96,10.0,SW,3.5,-,N/A,,Overcast,230,2012-10-16 08:35:00
4:55 AM,41.0,33.8,76,29.96,10.0,WSW,3.5,-,N/A,,Mostly Cloudy,250,2012-10-16 08:55:00
5:15 AM,41.0,33.8,76,29.96,10.0,Calm,Calm,-,N/A,,Scattered Clouds,0,2012-10-16 09:15:00
5:35 AM,41.0,33.8,76,29.97,10.0,Calm,Calm,-,N/A,,Mostly Cloudy,0,2012-10-16 09:35:00
5:55 AM,41.0,33.8,76,29.97,10.0,WSW,3.5,-,N/A,,Scattered Clouds,250,2012-10-16 09:55:00
6:15 AM,37.4,33.8,87,29.97,10.0,South,3.5,-,N/A,,Mostly Cloudy,170,2012-10-16 10:15:00
6:35 AM,37.4,33.8,87,29.98,10.0,South,3.5,-,N/A,,Scattered Clouds,180,2012-10-16 10:35:00
6:55 AM,37.4,33.8,87,29.99,10.0,South,4.6,-,N/A,,Scattered Clouds,190,2012-10-16 10:55:00
7:15 AM,35.6,33.8,93,30.00,10.0,WSW,3.5,-,N/A,,Scattered Clouds,250,2012-10-16 11:15:00
7:35 AM,37.4,33.8,87,29.99,10.0,Calm,Calm,-,N/A,,Scattered Clouds,0,2012-10-16 11:35:00
7:55 AM,37.4,33.8,87,29.99,10.0,Calm,Calm,-,N/A,,Clear,0,2012-10-16 11:55:00
8:15 AM,37.4,33.8,87,29.98,10.0,Calm,Calm,-,N/A,,Clear,0,2012-10-16 12:15:00
8:35 AM,41.0,33.8,76,29.99,10.0,Calm,Calm,-,N/A,,Clear,0,2012-10-16 12:35:00
8:55 AM,41.0,33.8,76,29.99,10.0,NNW,4.6,-,N/A,,Clear,330,2012-10-16 12:55:00
9:15 AM,42.8,33.8,70,29.99,10.0,WNW,4.6,-,N/A,,Clear,290,2012-10-16 13:15:00
9:35 AM,42.8,33.8,70,29.99,10.0,WNW,8.1,-,N/A,,Clear,290,2012-10-16 13:35:00
9:55 AM,44.6,32.0,61,29.99,10.0,West,6.9,-,N/A,,Clear,280,2012-10-16 13:55:00
10:15 AM,44.6,32.0,61,29.99,10.0,West,9.2,-,N/A,,Clear,260,2012-10-16 14:15:00
10:35 AM,46.4,32.0,57,29.98,10.0,West,5.8,-,N/A,,Clear,280,2012-10-16 14:35:00
10:55 AM,46.4,32.0,57,29.98,10.0,West,10.4,-,N/A,,Clear,260,2012-10-16 14:55:00
11:15 AM,50.0,32.0,50,29.98,10.0,West,11.5,16.1,N/A,,Clear,270,2012-10-16 15:15:00
11:35 AM,50.0,32.0,50,29.97,10.0,West,6.9,-,N/A,,Clear,280,2012-10-16 15:35:00
11:55 AM,51.8,30.2,44,29.97,10.0,West,6.9,-,N/A,,Clear,270,2012-10-16 15:55:00
12:15 PM,51.8,30.2,44,29.97,10.0,WSW,9.2,16.1,N/A,,Clear,250,2012-10-16 16:15:00
12:35 PM,53.6,28.4,38,29.97,10.0,WSW,11.5,-,N/A,,Clear,250,2012-10-16 16:35:00
12:55 PM,53.6,30.2,41,29.96,10.0,West,9.2,-,N/A,,Clear,270,2012-10-16 16:55:00
1:15 PM,53.6,26.6,35,29.95,10.0,West,11.5,-,N/A,,Clear,260,2012-10-16 17:15:00
1:35 PM,55.4,28.4,36,29.93,10.0,WNW,4.6,-,N/A,,Clear,290,2012-10-16 17:35:00
1:55 PM,55.4,26.6,33,29.92,10.0,West,8.1,-,N/A,,Clear,280,2012-10-16 17:55:00
2:15 PM,57.2,26.6,31,29.92,10.0,West,6.9,20.7,N/A,,Clear,280,2012-10-16 18:15:00
2:35 PM,57.2,23.0,27,29.92,10.0,WNW,8.1,-,N/A,,Clear,290,2012-10-16 18:35:00
2:55 PM,57.2,26.6,31,29.92,10.0,West,10.4,17.3,N/A,,Clear,260,2012-10-16 18:55:00
3:15 PM,57.2,24.8,29,29.92,10.0,West,12.7,-,N/A,,Clear,270,2012-10-16 19:15:00
3:35 PM,57.2,24.8,29,29.91,10.0,West,9.2,-,N/A,,Clear,270,2012-10-16 19:35:00
3:55 PM,57.2,24.8,29,29.91,10.0,West,6.9,-,N/A,,Clear,270,2012-10-16 19:55:00
4:15 PM,57.2,24.8,29,29.91,10.0,WNW,6.9,-,N/A,,Clear,290,2012-10-16 20:15:00
4:35 PM,55.4,24.8,31,29.91,10.0,West,8.1,-,N/A,,Clear,270,2012-10-16 20:35:00
4:55 PM,55.4,24.8,31,29.91,10.0,West,5.8,-,N/A,,Clear,270,2012-10-16 20:55:00
5:15 PM,55.4,24.8,31,29.91,10.0,West,8.1,-,N/A,,Clear,260,2012-10-16 21:15:00
5:35 PM,55.4,24.8,31,29.91,10.0,NW,4.6,-,N/A,,Clear,310,2012-10-16 21:35:00
5:55 PM,53.6,26.6,35,29.91,10.0,Calm,Calm,-,N/A,,Clear,0,2012-10-16 21:55:00
6:15 PM,53.6,26.6,35,29.92,10.0,West,3.5,-,N/A,,Clear,280,2012-10-16 22:15:00
6:35 PM,51.8,26.6,38,29.93,10.0,Calm,Calm,-,N/A,,Clear,0,2012-10-16 22:35:00
6:55 PM,50.0,28.4,43,29.93,10.0,Calm,Calm,-,N/A,,Clear,0,2012-10-16 22:55:00
7:15 PM,50.0,28.4,43,29.94,10.0,Calm,Calm,-,N/A,,Clear,0,2012-10-16 23:15:00
7:35 PM,46.4,28.4,50,29.93,10.0,Calm,Calm,-,N/A,,Clear,0,2012-10-16 23:35:00
7:55 PM,44.6,30.2,57,29.93,10.0,Calm,Calm,-,N/A,,Clear,0,2012-10-16 23:55:00
8:15 PM,44.6,30.2,57,29.93,10.0,Calm,Calm,-,N/A,,Clear,0,2012-10-17 00:15:00
8:35 PM,44.6,30.2,57,29.94,10.0,Calm,Calm,-,N/A,,Clear,0,2012-10-17 00:35:00
8:55 PM,41.0,30.2,65,29.94,10.0,Calm,Calm,-,N/A,,Clear,0,2012-10-17 00:55:00
9:15 PM,41.0,30.2,65,29.93,10.0,Calm,Calm,-,N/A,,Clear,0,2012-10-17 01:15:00
9:35 PM,39.2,30.2,70,29.92,10.0,Calm,Calm,-,N/A,,Clear,0,2012-10-17 01:35:00
9:55 PM,41.0,30.2,65,29.93,10.0,Calm,Calm,-,N/A,,Clear,0,2012-10-17 01:55:00
10:15 PM,41.0,30.2,65,29.94,10.0,Calm,Calm,-,N/A,,Clear,0,2012-10-17 02:15:00
10:35 PM,37.4,30.2,75,29.94,10.0,Calm,Calm,-,N/A,,Clear,0,2012-10-17 02:35:00
10:55 PM,37.4,30.2,75,29.95,10.0,Calm,Calm,-,N/A,,Clear,0,2012-10-17 02:55:00
11:15 PM,35.6,32.0,87,29.95,10.0,Calm,Calm,-,N/A,,Clear,0,2012-10-17 03:15:00
11:35 PM,35.6,30.2,81,29.95,10.0,Calm,Calm,-,N/A,,Clear,0,2012-10-17 03:35:00
11:55 PM,33.8,30.2,87,29.95,10.0,Calm,Calm,-,N/A,,Clear,0,2012-10-17 03:55:00